Meteo Giornale » Osservazioni meteo Congo » Pointe-Noire
ore: 17:00 - Osservazioni Meteo Pointe-Noire
Lat. 4° 49' S Lon. 11° 54' E Alt. 17 metri s.l.m.
24 °C
Coperto
Temp. 24 Ore
22 °C
28 °C
Sud
14.8 Km/h
Dew point 22 °C
Umidità 88 %
Visibilità 8 Km
Il sole sorge alle ore 06:12
Il sole tramonta alle ore 18:13
| Data e Ora | Cielo e Fenomeni | T °C | DP °C | Um. % | Pres. hPa | Vis. km | Vento km/h | |
|---|---|---|---|---|---|---|---|---|
| Oggi h: 17:00 | Coperto | 24 | 22 | 88 | 1012 | 8 | S 14.8 | |
| Oggi h: 16:00 | Coperto | 25 | 22 | 83 | 1012 | 8 | S/SO 16.7 | |
| Oggi h: 15:00 | Coperto | 25 | 22 | 83 | 1012 | 6 | S/SO 16.7 | |
| Oggi h: 14:00 | Coperto | 26 | 22 | 78 | 1012 | 6 | S/SO 18.5 | |
| Oggi h: 13:00 | Coperto | 26 | 22 | 78 | 1013 | 6 | S/SO 20.3 | |
| Oggi h: 11:00 | Coperto | 28 | 22 | 69 | 1015 | 6 | S/SE 13 | |
| Oggi h: 10:00 | Coperto | 26 | 21 | 73 | 1016 | 6 | S 18.5 | |
| Oggi h: 09:00 | Coperto | 25 | 22 | 83 | 1016 | 6 | S 13 | |
| Oggi h: 08:00 | Coperto | 23 | 22 | 94 | 1015 | 7 | N 5.5 | |
| Oggi h: 07:00 | Coperto | 23 | 22 | 94 | 1015 | 6 | N 5.5 | |
| Oggi h: 06:00 | Coperto | 22 | 22 | 100 | 1015 | 6 | N 3.7 | |
| Oggi h: 03:00 | Coperto | 22 | 22 | 100 | 1014 | 6 | N 5.5 | |
| Oggi h: 02:00 | Coperto | 22 | 22 | 100 | 1014 | 6 | N 5.5 | |
| Oggi h: 01:00 | Coperto | 22 | 22 | 100 | 1015 | 6 | N 0 | |
| Oggi h: 00:00 | Coperto | 22 | 22 | 100 | 1016 | 6 | N 3.7 | |
| Ieri h: 23:00 | Coperto | 23 | 22 | 94 | 1016 | 6 | N 3.7 | |
| Ieri h: 22:00 | Coperto | 23 | 22 | 94 | 1015 | 6 | S/SO 7.4 | |
| Ieri h: 21:00 | Coperto | 23 | 22 | 94 | 1015 | 6 | S/SO 11.1 | |
| Ieri h: 20:00 | Coperto | 23 | 22 | 94 | 1014 | 6 | S/SO 9.3 | |
| Ieri h: 19:00 | Coperto | 23 | 22 | 94 | 1014 | 6 | SO 9.3 | |
| Ieri h: 18:00 | Coperto | 23 | 21 | 88 | 1013 | 6 | SO 7.4 | |



